Location: Cyganka
(51.7667°N, 19.4000°E)
Time: 23:06:06
(UTC+00:00)

Daily predictions for brighter satellites

Satellite Brightness Start Highest point End
(mag) Time Altitude Azimuth Time Altitude Azimuth Time Altitude Azimuth
Cosmos 2082 Rocket 3.7 15:07:01 10° SE 15:10:33 17° E 15:14:04 10° ENE
Meteor 1-25 Rocket 4.5 15:06:04 10° N 15:11:27 47° ENE 15:16:50 10° SE
Meteor PRIRODA 3.8 15:09:11 10° SSE 15:12:43 50° ENE 15:16:14 10° N
ERBS 2.6 15:10:31 10° W 15:13:40 53° NNW 15:16:51 10° ENE
ATLAS 5 CENTAUR R/B 3.7 15:01:32 10° WNW 15:14:47 46° N 15:18:45 10° E
Cosmos 2333 Rocket 4.1 15:12:28 10° NNW 15:14:57 13° NNE 15:17:26 10° NE
Iridium 2 4.0 15:11:30 10° N 15:15:15 71° W 15:18:58 10° S
MOS 1 Rocket 3.6 15:10:47 10° NNE 15:15:52 79° WNW 15:20:36 10° SSW
Cosmos 1464 Rocket 4.1 15:11:08 10° S 15:17:29 74° E 15:23:52 10° NNE
Cosmos 1500 Rocket 3.7 15:13:48 10° N 15:18:12 56° ENE 15:22:32 10° SSE
Cosmos 2278 4.3 15:13:30 10° NNW 15:18:47 36° NE 15:24:01 10° ESE
Nadezhda 4 Rocket 4.0 15:13:23 10° N 15:19:44 76° ENE 15:26:04 10° SSE
Cosmos 1898 Rocket 3.5 15:14:51 10° NNW 15:20:08 72° ENE 15:25:21 10° SSE
Cosmos 1818 4.2 15:15:46 10° NW 15:20:48 35° NNE 15:25:50 10° E
USA 306 3.0 15:18:59 10° W 15:23:13 65° N 15:27:26 10° ENE
SL-16 R/B 4.3 15:20:22 10° NW 15:23:18 14° NNW 15:26:15 10° N
NOSS 2-1 (E) 3.9 15:20:48 10° WSW 15:23:52 39° NW 15:27:17 10° NE
ADEOS 4.0 15:18:57 10° S 15:24:09 70° WSW 15:29:24 10° NNW
SL-16 R/B 4.2 15:20:07 10° N 15:25:15 28° NW 15:30:23 10° WSW
Sich 1 3.6 15:21:36 10° N 15:25:31 33° ENE 15:29:27 10° SE
NOSS 2-2 (C) 4.1 15:21:53 10° NW 15:26:38 68° NE 15:33:16 10° SE
ARGOS 4.2 15:22:53 10° ESE 15:26:59 23° NE 15:31:06 10° N
Cosmos 1602 4.1 15:23:37 10° N 15:27:17 40° ENE 15:30:57 10° SE
NOAA 11 4.4 15:22:06 10° SSE 15:27:32 79° WSW 15:33:01 10° NNW
Meteor 2-2 Rocket 4.5 15:21:48 10° SSW 15:27:49 86° W 15:33:51 10° NNE
Cosmos 2221 2.5 15:23:54 10° S 15:28:11 87° E 15:32:32 10° N
Cosmos 1833 Rocket 3.1 15:24:42 10° S 15:30:00 45° ESE 15:35:22 10° NE
Cosmos 1805 Rocket 3.8 15:25:54 10° N 15:30:05 45° ENE 15:34:15 10° SSE
Cosmos 1939 Rocket 3.1 15:26:24 10° SSE 15:30:22 51° ENE 15:34:20 10° N
COSMOS 2406 3.8 15:28:21 10° S 15:33:38 39° ESE 15:38:54 10° NE
Spot 1 4.4 15:30:58 10° NNE 15:35:39 64° ESE 15:40:33 10° S
USA 267 3.7 15:29:17 10° ENE 15:35:39 50° SE 15:41:58 10° SW
Cosmos 2219 Rocket 4.1 15:33:49 10° N 15:36:14 13° NNE 15:38:39 10° NE
Cosmos 1092 Rocket 4.1 15:30:21 10° N 15:36:41 63° ENE 15:42:57 10° SSE
GEOS 3 Rocket 4.5 15:33:01 10° E 15:37:33 31° NNE 15:42:03 10° NW
Cosmos 1842 Rocket 3.7 15:33:14 10° S 15:37:42 87° W 15:42:14 10° N
CZ-2C R/B 3.0 15:36:53 10° S 15:41:45 79° WSW 15:46:32 10° NNW
USA 307 3.0 15:38:10 10° W 15:42:24 64° N 15:45:58 14° ENE
CZ-4C R/B 2.9 15:35:58 10° NW 15:42:46 67° NE 15:50:56 10° ESE
CZ-2C R/B 3.8 15:40:26 10° NE 15:44:12 20° E 15:47:55 10° SE
Cosmos 1606 3.7 15:42:41 10° SSW 15:46:19 46° WNW 15:50:02 10° N
Cosmos 1782 3.5 15:44:46 10° SSE 15:48:23 34° E 15:52:01 10° NNE
Cosmos 1763 Rocket 3.4 15:43:38 10° SSW 15:48:40 73° ESE 15:53:49 10° NNE
Cosmos 1500 3.3 15:48:42 10° N 15:52:21 48° ENE 15:55:58 10° SSE
H-2A R/B 2.2 15:48:36 10° SE 15:53:29 47° ENE 15:58:17 10° N
CZ-4B R/B 3.5 15:48:47 10° SE 15:53:46 40° ENE 15:58:42 10° N
PAYLOAD B 4.3 15:49:46 10° SE 15:55:14 56° ENE 16:00:43 10° N
CZ-2D R/B 3.5 15:51:45 10° SE 15:55:24 44° ENE 15:59:04 10° N
Cosmos 841 Rocket 3.9 15:51:19 10° S 15:56:06 41° ESE 16:00:15 13° NE
Cosmos 1340 Rocket 4.0 15:52:20 10° NNW 15:56:17 48° W 16:00:12 10° S
SeaSat 1 3.9 15:53:38 10° NNE 15:57:57 31° NW 16:02:16 10° WSW
Cosmos 1937 Rocket 3.7 15:53:14 10° NNW 15:58:36 80° WSW 16:03:54 10° SSE
Cosmos 1627 Rocket 4.4 15:52:41 10° N 15:58:54 76° E 16:05:01 10° SSE
CZ-4C R/B 4.4 15:55:29 10° N 15:59:11 42° WNW 16:02:41 10° SW
ATLAS CENTAUR R/B 3.3 15:56:23 10° WNW 15:59:55 23° NNW 16:03:18 11° NNE
ATLAS 2AS CENTAUR R/B 3.9 15:54:21 10° WNW 16:01:16 34° N 16:06:35 15° NE
Meteor 2-21 4.4 15:56:15 10° N 16:02:22 72° ENE 16:08:24 10° SSE
Cosmos 1125 Rocket 4.3 15:58:19 10° N 16:02:56 30° NE 16:07:07 12° ESE
USA 308 3.0 16:00:46 10° W 16:04:59 64° N 16:07:37 22° E
COSMOS 2455 3.2 15:59:16 10° S 16:05:00 47° ESE 16:09:19 17° NE
SMAP 3.2 16:00:28 10° SSE 16:05:07 81° WSW 16:09:49 10° NNW
Cosmos 2034 Rocket 4.2 15:58:58 10° SSW 16:05:07 75° WNW 16:11:19 10° N
COSMO-SKYMED 1 3.6 16:04:26 20° ENE 16:05:59 24° E 16:09:33 10° SSE
Lacrosse 5 rocket 1.2 16:02:37 10° WNW 16:06:27 64° NNE 16:09:12 19° ESE
Cosmos 2279 Rocket 4.4 16:01:00 10° SSE 16:06:43 41° E 16:12:27 10° NNE
Cosmos 372 Rocket 3.9 16:01:28 10° NNW 16:06:44 82° ENE 16:12:00 10° SSE
Cosmos 2360 Rocket 3.4 16:04:13 10° NNW 16:08:40 23° NE 16:10:24 20° ENE
ATLAS CENTAUR R/B 2.9 16:00:04 10° SW 16:09:25 63° SE 16:12:03 23° ENE
AQUARIUS 4.2 16:05:29 10° SSE 16:09:58 84° WSW 16:14:31 10° NNW
USA 234 3.6 16:04:46 10° SE 16:11:17 67° SW 16:17:48 10° WNW
Cosmos 1633 Rocket 3.3 16:08:19 10° N 16:12:33 45° ENE 16:16:46 10° SSE
Cosmos 44 Rocket 3.4 16:08:07 10° NW 16:13:02 56° NE 16:17:16 13° ESE
Meteor 1-11 Rocket 4.4 16:08:24 10° N 16:13:17 30° ENE 16:18:14 10° SE
SL-24 R/B - RUBIN 2 4.0 16:09:59 10° NW 16:14:33 64° SW 16:18:49 10° SSE
Meteor 1-26 Rocket 4.3 16:10:28 10° S 16:16:24 68° E 16:22:25 10° NNE
ISS -2.3 16:13:48 10° W 16:16:57 37° SSW 16:20:02 10° SE
NOAA 6 4.4 16:12:13 10° S 16:17:19 67° WSW 16:22:28 10° NNW
YAOGAN 1 3.7 16:19:41 24° NE 16:19:41 24° NE 16:22:30 10° N
COSMOS 2428 4.4 16:17:42 10° NNW 16:21:04 16° NNE 16:21:51 15° NNE
CZ-4 R/B 3.3 16:23:30 14° NNE 16:23:30 14° NNE 16:24:23 10° N
Cosmos 1666 2.6 16:17:59 10° N 16:21:41 57° ENE 16:25:20 10° SSE
Cosmos 1634 Rocket 4.0 16:18:31 10° S 16:24:51 80° E 16:31:13 10° NNE
Cosmos 1151 Rocket 3.2 16:21:01 10° SSE 16:25:10 47° E 16:27:48 21° NNE
Cosmos 2026 Rocket 4.1 16:19:32 10° NNW 16:25:42 76° W 16:31:45 10° S
PSLV R/B 3.8 16:23:35 10° S 16:27:16 74° WSW 16:31:03 10° NNW
Cosmos 2322 Rocket 2.7 16:24:24 10° NNW 16:29:43 38° NE 16:32:01 27° E
Cosmos 1697 Rocket 4.2 16:25:03 10° NW 16:30:12 38° WSW 16:35:19 10° S
USA 305 2.9 16:26:51 10° WNW 16:31:06 69° N 16:32:39 37° E
Cosmos 1933 3.9 16:27:55 10° SSW 16:31:55 57° WNW 16:35:54 10° N
Cosmos 1980 Rocket 2.7 16:29:36 10° NW 16:35:12 62° WSW 16:40:45 10° SSE
Okean O Rocket 1.6 16:32:23 10° SSE 16:36:48 63° ENE 16:41:13 10° N
Landsat 5 4.4 16:40:23 29° SE 16:40:23 29° SE 16:42:59 10° SSE
Cosmos 1666 Rocket 3.6 16:34:51 10° NNW 16:39:20 85° W 16:43:44 10° S
Cosmos 540 Rocket 3.6 16:34:43 10° SSW 16:39:49 76° WNW 16:43:47 17° NNE
Cosmos 1470 Rocket 3.6 16:38:14 10° N 16:42:38 54° ENE 16:47:01 10° SSE
Meteor 1-5 Rocket 4.3 16:39:06 10° NNW 16:45:08 88° W 16:51:04 10° S
SJ-11-01 4.2 16:40:45 10° SSE 16:45:29 76° ENE 16:50:15 10° NNW
Cosmos 1328 Rocket 3.6 16:41:19 10° S 16:45:39 55° E 16:46:57 39° NE
Cosmos 1812 2.6 16:43:17 10° S 16:47:08 86° E 16:48:49 33° NNE
Meteor 1-14 Rocket 4.4 16:41:34 10° NNW 16:47:24 78° W 16:53:19 10° S
SL-16 R/B 2.2 16:42:40 10° NNW 16:48:18 59° NE 16:51:23 27° SE
Cosmos 1655 Rocket 4.0 16:42:30 10° N 16:48:52 61° ENE 16:55:10 10° SSE
ERBS 3.5 16:47:07 10° WNW 16:49:40 30° NNW 16:49:40 30° NNW
Cosmos 2237 Rocket 4.2 16:48:06 10° N 16:50:36 13° NNE 16:50:40 13° NNE
Meteor 2-8 Rocket 4.4 16:46:09 10° S 16:52:12 63° E 16:58:18 10° NNE
Cosmos 1570 Rocket 3.9 16:47:54 10° S 16:53:05 64° ESE 16:55:00 38° NE
Cosmos 2298 Rocket 3.9 16:47:54 10° NNW 16:53:15 71° ENE 16:58:05 13° SSE
Cosmos 2082 Rocket 2.1 16:48:07 10° SSW 16:53:49 86° ESE 16:56:54 29° NNE
SKYMED 2 3.4 16:53:03 43° NE 16:54:20 67° ESE 16:58:39 10° S
Cosmos 1814 Rocket 3.8 16:49:51 10° SSW 16:55:03 75° ESE 16:57:15 35° NE
Cosmos 2180 Rocket 4.4 16:51:15 10° S 16:57:31 71° E 17:03:46 10° NNE
MOS 1-B Rocket 4.0 16:54:03 10° NNE 16:59:56 90° SE 17:06:34 10° SSW
Cosmos 2333 Rocket 3.3 16:56:25 10° NNW 17:00:42 27° NNE 17:00:42 27° NNE
Cosmos 2278 4.4 16:57:37 10° NW 17:03:11 54° WSW 17:08:41 10° S
USA 306 2.7 16:59:03 10° WNW 17:03:20 81° NNE 17:03:34 76° ENE
Cosmos 1818 3.8 16:59:21 10° NW 17:04:50 71° SW 17:08:58 18° SSE
ARGOS 3.3 17:01:20 10° S 17:06:45 76° WSW 17:12:11 10° NNW
SL-16 R/B 4.4 17:08:33 10° N 17:10:11 11° N 17:10:35 11° NNE
NOAA 15 4.4 17:05:01 10° SSE 17:10:16 71° ENE 17:15:32 10° NNW
Cosmos 1833 Rocket 3.8 17:08:44 10° WSW 17:14:01 41° NW 17:17:33 20° NNE
GEOS 3 Rocket 3.5 17:13:44 50° SE 17:15:11 84° NE 17:20:23 10° NW
COSMOS 2406 4.1 17:12:21 10° SW 17:17:53 47° NW 17:21:11 23° NNE
USA 267 3.2 17:16:34 43° NE 17:18:56 77° NNW 17:25:28 10° WSW
Cosmos 2219 Rocket 3.5 17:17:14 10° NNW 17:20:36 26° NNE 17:20:36 26° NNE
USA 307 3.1 17:18:14 10° WNW 17:21:59 68° WNW 17:21:59 68° WNW
CZ-2C R/B 2.7 17:21:47 23° N 17:25:04 72° WNW 17:30:12 10° SSW
IRS-1C Rocket 4.4 17:28:34 51° NNE 17:28:34 51° NNE 17:32:40 10° NNW
Cosmos 2208 Rocket 4.0 17:23:00 10° SSW 17:28:26 86° WNW 17:29:27 61° NNE
SL-08 RB Rocket 4.1 17:24:35 10° S 17:29:11 63° W 17:33:46 10° NNW
Cosmos 2150 Rocket 4.2 17:25:03 10° NNW 17:30:11 67° WSW 17:33:12 25° S
CZ-4C R/B 3.9 17:24:34 10° NW 17:31:24 46° WSW 17:39:16 10° S
H-2A R/B 3.9 17:28:38 10° SSW 17:33:06 30° W 17:37:31 10° NNW
Meteor 2-6 Rocket 4.4 17:27:45 10° SSW 17:33:28 69° WNW 17:36:56 24° N
CZ-4B R/B 4.5 17:29:19 10° SSW 17:34:22 39° W 17:39:21 10° NNW
ATLAS CENTAUR R/B 3.8 17:37:20 10° NW 17:39:25 16° NNW 17:39:25 16° NNW
COSMO-SKYMED 1 3.6 17:41:39 41° NW 17:42:21 44° WNW 17:46:29 10° SW
USA 308 4.1 17:40:46 10° WNW 17:43:39 41° W 17:43:39 41° W
Cosmos 1125 Rocket 4.1 17:40:12 10° NNW 17:45:19 55° WSW 17:47:31 32° S
Lacrosse 5 rocket 2.9 17:41:48 10° WNW 17:44:49 33° WSW 17:44:49 33° WSW
Cosmos 2237 4.1 17:40:38 10° NNW 17:46:08 82° NW 17:46:08 82° NW
COSMOS 2455 3.6 17:45:10 10° WSW 17:51:00 48° NW 17:52:28 40° N
NOSS 3-4 (A) 4.0 17:44:40 10° NW 17:50:44 52° NNE 17:50:44 52° NNE
NOSS 3-4 (C) 4.0 17:44:46 10° NW 17:50:49 52° NNE 17:50:49 52° NNE
Cosmos 2360 Rocket 2.6 17:47:52 10° NNW 17:52:12 53° NNW 17:52:12 53° NNW
Meteor 2-15 Rocket 4.5 17:47:39 10° SSW 17:53:47 75° WNW 17:55:53 43° N
ATLAS 2AS CENTAUR R/B 3.5 17:47:09 10° NW 17:54:01 38° NNE 17:54:01 38° NNE
YAOGAN 1 4.3 17:56:50 27° NW 17:56:50 27° NW 17:59:03 10° NNW
CZ-4 R/B 4.1 17:59:29 12° NNW 17:59:29 12° NNW 17:59:51 10° NNW
Meteor 1-11 Rocket 4.4 17:51:34 10° NNW 17:57:01 53° W 18:02:33 10° S
COSMOS 2428 4.4 18:01:29 10° NNW 18:03:52 23° N 18:03:52 23° N
Okean O Rocket 4.3 18:10:25 10° SW 18:13:33 19° W 18:16:42 10° NW
Cosmos 2322 Rocket 2.9 18:08:28 10° NW 18:13:54 51° WSW 18:13:54 51° WSW
SL-16 R/B 3.8 18:27:14 10° NW 18:32:06 30° WSW 18:33:20 27° SW
Cosmos 2082 Rocket 4.0 18:33:57 10° W 18:38:38 26° NW 18:38:46 26° NW
Cosmos 2333 Rocket 4.1 18:40:29 10° NNW 18:42:44 25° NW 18:42:44 25° NW
USA 267 4.3 19:03:55 39° WNW 19:03:55 39° WNW 19:08:02 10° WNW
